Centralia, IL

10:13 AM CST on January 19, 2018 (GMT -0600)
Centralia Municipal

Weather History for KENL - January, 2012

Change the Weather History Date:

Saturday, January 21, 2012

  Actual Average (KSLO) Record (KSLO)
Temperature  
Mean Temperature 26 °F -  
Max Temperature 29 °F 37 °F 69 °F (1986)
Min Temperature 23 °F 21 °F -13 °F (1984)
Degree Days  
Heating Degree Days 39    
Moisture  
Dew Point 23 °F    
Average Humidity 87    
Maximum Humidity 91    
Minimum Humidity 83    
Precipitation  
Precipitation 0.05 in - - ()
Sea Level Pressure  
Sea Level Pressure 30.11 in    
Wind  
Wind Speed 10 mph (NNE)    
Max Wind Speed 13 mph    
Max Gust Speed 17 mph    
Visibility 10 miles    
Events      
Averages and records for this station are not official NWS values.
T = Trace of Precipitation, MM = Missing Value Source: NWS Daily Summary

Daily Weather History Graph

Daily Weather History Graph

Search for Another Location

Airport or City:

Trip Planner

Search our weather history database for the weather conditions in past years. The results will help you decide how hot, cold, wet, or windy it might be!

Date:

Astronomy

Jan. 21, 2012 Rise Set
Actual Time 7:09 AM CST 5:05 PM CST
Civil Twilight 6:41 AM CST 5:34 PM CST
Nautical Twilight 6:08 AM CST 6:06 PM CST
Astronomical Twilight 5:37 AM CST 6:38 PM CST
Moon 5:40 AM CST (1/21) 3:41 PM CST (1/21)
Length of Visible Light 10h 52m
Length of Day
9h 55m
Waning Crescent, 3% of the Moon is Illuminated
Jan 21
Waning Crescent
Jan 23
New
Jan 30
First Quarter
Feb 7
Full
Feb 14
Last Quarter

Hourly Weather History & Observations

Time (CST) Temp. Windchill Dew Point Humidity Pressure Visibility Wind Dir Wind Speed Gust Speed Precip Events Conditions
12:15 AM 27.1 °F 16.4 °F 24.8 °F 91% 29.97 in 7.0 mi North 12.7 mph 17.3 mph N/A   Overcast
12:35 AM 26.6 °F 18.2 °F 23.9 °F 90% 29.96 in 10.0 mi North 8.1 mph - N/A   Overcast
12:55 AM 26.4 °F 16.6 °F 23.7 °F 90% 29.96 in 10.0 mi North 10.4 mph - N/A   Overcast
1:15 AM 26.1 °F 17.6 °F 23.2 °F 89% 29.97 in 10.0 mi North 8.1 mph - N/A   Overcast
1:35 AM 25.7 °F 15.1 °F 23.0 °F 89% 29.98 in 7.0 mi NNW 11.5 mph - N/A   Overcast
1:55 AM 25.3 °F 14.7 °F 22.3 °F 88% 29.99 in 10.0 mi NW 11.5 mph - N/A   Overcast
2:15 AM 25.2 °F 13.9 °F 22.1 °F 88% 30.00 in 10.0 mi NNW 12.7 mph - N/A   Overcast
2:35 AM 24.8 °F 14.6 °F 21.7 °F 88% 30.03 in 10.0 mi NW 10.4 mph - N/A   Overcast
2:55 AM 25.0 °F 13.6 °F 21.9 °F 88% 30.03 in 7.0 mi NNW 12.7 mph 16.1 mph N/A   Overcast
3:15 AM 24.8 °F 13.4 °F 21.9 °F 89% 30.03 in 7.0 mi NNW 12.7 mph 16.1 mph N/A   Overcast
3:35 AM 24.6 °F 13.8 °F 21.7 °F 89% 30.03 in 7.0 mi NNW 11.5 mph - N/A   Overcast
3:55 AM 24.4 °F 13.0 °F 21.7 °F 89% 30.04 in 7.0 mi NNW 12.7 mph - N/A   Overcast
4:15 AM 24.1 °F 13.1 °F 21.4 °F 89% 30.05 in 7.0 mi NNW 11.5 mph - N/A   Overcast
4:35 AM 23.9 °F 13.5 °F 21.4 °F 90% 30.06 in 7.0 mi NNW 10.4 mph - N/A   Overcast
4:55 AM 23.7 °F 12.6 °F 20.7 °F 88% 30.06 in 10.0 mi NNW 11.5 mph - N/A   Overcast
5:15 AM 23.9 °F 14.2 °F 20.3 °F 86% 30.07 in 10.0 mi NNW 9.2 mph - N/A   Overcast
5:35 AM 23.9 °F 15.0 °F 20.5 °F 87% 30.06 in 10.0 mi North 8.1 mph - N/A   Overcast
5:55 AM 24.3 °F 13.3 °F 20.8 °F 87% 30.08 in 10.0 mi NNW 11.5 mph - N/A   Overcast
6:15 AM 24.3 °F 12.7 °F 21.0 °F 87% 30.09 in 10.0 mi NNW 12.7 mph - N/A   Overcast
6:35 AM 24.4 °F 13.5 °F 20.8 °F 86% 30.11 in 10.0 mi NNW 11.5 mph - N/A   Overcast
6:55 AM 24.4 °F 14.2 °F 21.2 °F 87% 30.11 in 10.0 mi North 10.4 mph - N/A   Overcast
7:15 AM 24.4 °F 14.2 °F 21.2 °F 87% 30.12 in 10.0 mi North 10.4 mph - N/A   Overcast
7:35 AM 24.6 °F 15.1 °F 21.2 °F 87% 30.13 in 10.0 mi North 9.2 mph - N/A   Overcast
7:55 AM 24.4 °F 14.9 °F 21.2 °F 87% 30.14 in 10.0 mi North 9.2 mph - N/A   Overcast
8:15 AM 24.6 °F 16.7 °F 21.4 °F 87% 30.15 in 10.0 mi North 6.9 mph - N/A   Overcast
8:35 AM 24.8 °F 14.6 °F 21.2 °F 86% 30.16 in 10.0 mi North 10.4 mph - N/A   Overcast
8:55 AM 25.3 °F 16.7 °F 21.6 °F 86% 30.17 in 10.0 mi North 8.1 mph - N/A   Overcast
9:15 AM 25.5 °F 16.2 °F 21.7 °F 86% 30.18 in 10.0 mi North 9.2 mph - N/A   Overcast
9:35 AM 25.7 °F 16.4 °F 21.9 °F 86% 30.19 in 10.0 mi North 9.2 mph - N/A   Overcast
9:55 AM 26.4 °F 17.3 °F 22.6 °F 86% 30.20 in 10.0 mi North 9.2 mph - N/A   Overcast
10:15 AM 26.4 °F 18.9 °F 22.3 °F 84% 30.20 in 10.0 mi NNE 6.9 mph - N/A   Overcast
10:35 AM 27.3 °F 19.1 °F 23.5 °F 86% 30.19 in 10.0 mi NNE 8.1 mph - N/A   Overcast
10:55 AM 27.5 °F 19.3 °F 23.4 °F 84% 30.19 in 10.0 mi NNE 8.1 mph - N/A   Overcast
11:15 AM 28.0 °F 19.3 °F 24.1 °F 85% 30.18 in 10.0 mi North 9.2 mph - N/A   Overcast
11:35 AM 28.0 °F 20.8 °F 23.4 °F 83% 30.17 in 10.0 mi NNE 6.9 mph - N/A   Overcast
11:55 AM 28.2 °F 21.0 °F 24.1 °F 84% 30.17 in 10.0 mi North 6.9 mph - N/A   Overcast
12:15 PM 28.8 °F 20.9 °F 24.6 °F 84% 30.16 in 10.0 mi North 8.1 mph - N/A   Overcast
12:35 PM 29.1 °F 22.1 °F 25.2 °F 85% 30.15 in 10.0 mi NNE 6.9 mph - N/A   Overcast
12:55 PM 29.7 °F 23.7 °F 25.5 °F 85% 30.14 in 10.0 mi North 5.8 mph - N/A   Overcast
1:15 PM 29.3 °F 23.2 °F 25.2 °F 85% 30.14 in 10.0 mi NE 5.8 mph - N/A   Overcast
1:35 PM 29.3 °F 22.3 °F 25.2 °F 85% 30.13 in 10.0 mi NE 6.9 mph - N/A   Overcast
1:55 PM 29.8 °F 23.0 °F 25.7 °F 85% 30.14 in 10.0 mi ENE 6.9 mph - N/A   Overcast
2:15 PM 29.8 °F 23.0 °F 25.9 °F 85% 30.14 in 10.0 mi ENE 6.9 mph - N/A   Overcast
2:35 PM 29.5 °F 22.5 °F 25.7 °F 86% 30.14 in 10.0 mi NE 6.9 mph - N/A   Overcast
2:55 PM 29.7 °F 23.7 °F 26.2 °F 87% 30.13 in 10.0 mi ENE 5.8 mph - N/A   Overcast
3:15 PM 29.7 °F 22.8 °F 26.1 °F 86% 30.14 in 10.0 mi ENE 6.9 mph - N/A   Overcast
3:35 PM 29.3 °F 22.3 °F 25.7 °F 86% 30.14 in 10.0 mi NE 6.9 mph - N/A   Overcast
3:55 PM 29.1 °F 23.0 °F 25.9 °F 88% 30.15 in 10.0 mi ENE 5.8 mph - N/A   Overcast
4:15 PM 29.1 °F 23.0 °F 26.1 °F 88% 30.15 in 10.0 mi ENE 5.8 mph - N/A   Overcast
4:35 PM 28.9 °F 21.9 °F 26.1 °F 89% 30.14 in 10.0 mi East 6.9 mph - N/A   Overcast
4:55 PM 28.4 °F 19.7 °F 25.5 °F 89% 30.14 in 10.0 mi East 9.2 mph - N/A   Overcast
5:15 PM 28.2 °F 20.2 °F 25.5 °F 90% 30.14 in 10.0 mi East 8.1 mph - N/A   Overcast
5:35 PM 28.2 °F 22.0 °F 25.7 °F 90% 30.14 in 10.0 mi East 5.8 mph - N/A   Overcast
5:55 PM 27.9 °F 20.6 °F 25.3 °F 90% 30.15 in 10.0 mi East 6.9 mph - N/A   Overcast
6:15 PM 27.5 °F 20.2 °F 25.0 °F 90% 30.15 in 7.0 mi East 6.9 mph - N/A   Overcast
6:35 PM 27.5 °F 18.6 °F 25.5 °F 92% 30.14 in 7.0 mi East 9.2 mph - N/A   Overcast
6:55 PM 27.5 °F 19.3 °F 25.2 °F 91% 30.13 in 7.0 mi East 8.1 mph - N/A   Overcast
7:15 PM 28.4 °F 19.7 °F 24.8 °F 86% 30.13 in 7.0 mi East 9.2 mph - N/A   Overcast
7:35 PM 27.5 °F 20.2 °F 25.5 °F 92% 30.15 in 7.0 mi East 6.9 mph - N/A   Overcast
7:55 PM 27.5 °F 20.2 °F 25.5 °F 92% 30.14 in 7.0 mi East 6.9 mph - N/A   Overcast
8:15 PM 27.5 °F 19.3 °F 25.5 °F 92% 30.14 in 7.0 mi ESE 8.1 mph - N/A   Overcast
8:35 PM 27.5 °F 20.2 °F 25.7 °F 93% 30.14 in 7.0 mi East 6.9 mph - N/A   Overcast
8:55 PM 27.5 °F 18.6 °F 25.7 °F 93% 30.15 in 7.0 mi SE 9.2 mph 16.1 mph N/A   Overcast
9:15 PM 27.9 °F 17.8 °F 25.7 °F 92% 30.14 in 7.0 mi SE 11.5 mph - N/A   Overcast
9:35 PM 28.0 °F 18.1 °F 26.1 °F 92% 30.12 in 7.0 mi SE 11.5 mph - N/A   Overcast
9:55 PM 28.0 °F 19.3 °F 26.1 °F 92% 30.11 in 5.0 mi ESE 9.2 mph - N/A   Overcast
10:15 PM 28.4 °F 19.1 °F 26.4 °F 92% 30.10 in 5.0 mi SE 10.4 mph - N/A   Overcast
10:35 PM 28.4 °F 20.4 °F 26.6 °F 93% 30.08 in 5.0 mi ESE 8.1 mph - N/A   Overcast
10:55 PM 28.8 °F 20.9 °F 26.8 °F 92% 30.08 in 5.0 mi ESE 8.1 mph - N/A   Overcast
11:15 PM 28.8 °F 19.0 °F 26.6 °F 92% 30.07 in 4.0 mi SE 11.5 mph - N/A   Overcast
11:35 PM 28.9 °F 19.8 °F 27.1 °F 93% 30.07 in 4.0 mi ESE 10.4 mph - N/A   Overcast
11:55 PM 28.9 °F 21.1 °F 27.1 °F 93% 30.08 in 4.0 mi ESE 8.1 mph - N/A   Overcast